Regional Weather Roundup
Issued by NWS San Angelo, TX

Home | Current Version | Previous Version | Text Only | Print | Product List | Glossary On
Versions: 1 2 3 4 5 6 7 8 9 10 11 12 13 14 15 16 17 18 19 20 21 22 23 24 25 26 27 28 29 30 31 32 33 34 35 36 37 38 39 40 41 42 43 44 45 46 47 48 49 50
000
ASUS44 KSJT 230010
RWRSJT
WEST CENTRAL TEXAS REGIONAL WEATHER ROUNDUP
NATIONAL WEATHER SERVICE SAN ANGELO TX
700 PM CDT FRI SEP 22 2017

NOTE: "FAIR" INDICATES FEW OR NO CLOUDS BELOW 12,000 FEET WITH NO
SIGNIFICANT WEATHER AND/OR OBSTRUCTIONS TO VISIBILITY.

TXZ049-054-064>066-071>073-076>078-098-099-113-114-127-128-139-140-
154-155-168>170-230100
...LOCATIONS ACROSS WEST CENTRAL TEXAS...

CITY           SKY/WX    TMP DP  RH WIND       PRES   REMARKS
SAN ANGELO     PTCLDY    91  60  35 SE18G28   29.84S
ABILENE        CLEAR     89  62  40 SE15G22   29.87S
DYESS AFB      PTCLDY    90  64  42 SE16      29.85R
JUNCTION       NOT AVBL
SWEETWATER     CLEAR     89  57  33 SE12      29.90S
BROWNWOOD      CLEAR     88  63  42 SE16G22   29.88R
COLEMAN        CLEAR     89  62  40 SE17      29.87S
SONORA         CLEAR     90  63  40 S12G17    29.91R
OZONA          FAIR      88  59  37 S8        29.89S
BRADY          NOT AVBL
$$

TEXAS PANHANDLE/OKLAHOMA PANHANDLE

CITY           SKY/WX    TMP DP  RH WIND       PRES   REMARKS
AMARILLO       CLOUDY    83  59  44 S20       29.88S
BORGER         CLEAR     86  60  41 S17G30    29.82F
CANADIAN       PTCLDY    88  64  45 S12G28    29.84R
DALHART        CLOUDY    77  66  68 MISG      29.85S
DUMAS          CLEAR     83  60  45 S25G31    29.85R
GUYMON         NOT AVBL
HEREFORD       CLOUDY    83  62  48 S15G28    29.90R
PAMPA          CLEAR     85  58  40 S25G32    29.87S
PERRYTON       CLEAR     88  60  38 S23G31    29.82F
$$

SOUTHERN PANHANDLE/SOUTH PLAINS/ROLLING PLAINS

CITY           SKY/WX    TMP DP  RH WIND       PRES   REMARKS
LUBBOCK        PTCLDY    85  62  46 S22G30    29.87F
SNYDER         CLEAR     89  60  37 S13       29.87S
CHILDRESS      CLEAR     89  62  40 SE10G20   29.84S
SEMINOLE       CLEAR     85  60  42 SE16G25   29.88R
$$

PERMIAN BASIN

CITY           SKY/WX    TMP DP  RH WIND       PRES   REMARKS
MIDLAND        CLEAR     87  62  43 SE21G26   29.86S
ODESSA         CLEAR     86  63  45 S18G25    29.87S
WINK           MOCLDY    88  62  41 SE16G25   29.81R
$$

FAR WEST/SOUTHWEST MOUNTAINS/TRANS PECOS

CITY           SKY/WX    TMP DP  RH WIND       PRES   REMARKS
ALPINE         CLEAR     86  54  33 SE12G18   29.96F
DRYDEN           N/A     89  64  43 SE18G25   29.82S
EL PASO        MOSUNNY   93  40  15 S15G23    29.80F
FORT STOCKTON  NOT AVBL
GUADALUPE PASS PTSUNNY   84  46  26 SE9       29.97S
MARFA          NOT AVBL
PECOS          MOCLDY    90  65  43 E22G30    29.79R
$$

DALLAS/FORT WORTH METROPLEX

CITY           SKY/WX    TMP DP  RH WIND       PRES   REMARKS
DFW AIRPORT    PTCLDY    90  64  42 SE10      29.87S
FTW MEACHAM    CLEAR     91  65  41 SE17      29.87S
DAL-EXECUTIVE  CLEAR     89  63  41 SE13      29.89R
GRAND PRAIRIE  NOT AVBL
ADDISON        PTCLDY    90  59  35 MISG      29.90S
MESQUITE       PTCLDY    88  61  40 SE9       29.90S
LANCASTER      CLEAR     89  61  38 SE14      29.90S
$$

NORTH CENTRAL TEXAS

CITY           SKY/WX    TMP DP  RH WIND       PRES   REMARKS
SHRMAN/DENISON CLEAR     87  64  46 E8        29.92R
GAINESVILLE    CLEAR     86  64  47 SE10      29.92R
BRIDGEPORT     CLEAR     88  64  45 SE9       29.89S
DENTON         PTCLDY    88  66  48 SE14      29.88S
WAXAHACHIE     CLEAR     88  66  48 SE8       29.91S
GRANBURY       CLEAR     90  64  42 SE10G18   29.88S
$$

WESTERN NORTH TEXAS

CITY           SKY/WX    TMP DP  RH WIND       PRES   REMARKS
WICHITA FALLS  CLEAR     87  67  51 SE20      29.85S
VERNON         CLEAR     91  56  30 SE17      29.84S
BRECKENRIDGE   CLEAR     90  62  39 SE16G22   29.86S
COMANCHE       PTCLDY    87  66  50 SE20G25   29.89R
$$

CENTRAL AND SOUTH CENTRAL TEXAS

CITY           SKY/WX    TMP DP  RH WIND       PRES   REMARKS
AUSTIN/BERGSTM PTCLDY    84  72  65 SE10      29.89S
WACO           CLEAR     89  64  43 SE14      29.88
HILLSBORO      PTCLDY    90  65  43 E13       29.90R
TEMPLE         CLEAR     87  68  52 SE16      29.90S
KILLEEN-GRAY   CLEAR     83  68  59 SE20      29.89R
FORT HOOD      PTCLDY    83  67  57 S13       29.87R
GEORGETOWN     CLEAR     85  69  58 S8        29.91F
LAGO VISTA     FAIR      81  69  67 SE5       29.93S
SAN MARCOS     CLEAR     82  70  66 SE12      29.90S
NEW BRAUNFELS  NOT AVBL
RANDOLPH AFB   CLEAR     83  71  66 SE15      29.89R
SAN ANTONIO    NOT AVBL
STINSON        NOT AVBL
PLEASANTON     NOT AVBL
LA GRANGE      CLEAR     84  74  70 CALM      29.88S
GIDDINGS       CLEAR     82  67  61 SE3       29.91S
$$

EAST TEXAS

CITY           SKY/WX    TMP DP  RH WIND       PRES   REMARKS
PARIS          CLEAR     86  67  52 SE6       29.93S
CLARKSVILLE    NOT AVBL
TYLER          NOT AVBL
LONGVIEW       NOT AVBL
PALESTINE      CLEAR     87  70  56 CALM      29.93S
NACOGDOCHES    CLEAR     84  72  67 S3        29.93S
$$

TEXAS HILL COUNTRY AND EDWARDS PLATEAU

CITY           SKY/WX    TMP DP  RH WIND       PRES   REMARKS
LLANO          CLEAR     88  66  48 E13G20    29.91R
HORSESHOE BAY  FAIR      86  66  50 SE10G17   29.90R
KERRVILLE      CLEAR     84  70  61 SE13      29.90R
FREDERICKSBRG  CLEAR     83  64  53 SE8G18    29.91S
ROCKSPRINGS    NOT AVBL
HONDO          NOT AVBL
UVALDE         CLEAR     88  67  50 E18G29    29.84R
DEL RIO        NOT AVBL
$$

SOUTHEAST TEXAS

CITY           SKY/WX    TMP DP  RH WIND       PRES   REMARKS
COLLEGE STN    NOT AVBL
CALDWELL       CLEAR     85  69  58 SE7       29.90S
CROCKETT       MOCLDY    84  70  61 CALM      29.95S
BRENHAM        CLEAR     87  70  57 SE3       29.90S
HUNTSVILLE     NOT AVBL
CONROE         NOT AVBL
HOUSTON BUSH   NOT AVBL
HOUSTON HOBBY  NOT AVBL
PERLAND        NOT AVBL
WHARTON        CLEAR     82  69  64 SE8       29.90S
$$

THE UPPER TEXAS COAST

CITY           SKY/WX    TMP DP  RH WIND       PRES   REMARKS
ORANGE         NOT AVBL
PORT ARTHUR    NOT AVBL
GALVESTON      NOT AVBL
ANGLETON       NOT AVBL
BAY CITY       CLEAR     84  73  69 SE7       29.90S HAZE
$$

TEXAS COASTAL BEND, RIO GRANDE PLAINS DEEP SOUTH TEXAS

CITY           SKY/WX    TMP DP  RH WIND       PRES   REMARKS
VICTORIA       NOT AVBL
BEEVILLE       FAIR      84  68  58 E15G22    29.85S
ROCKPORT       NOT AVBL
PORT ARANSAS   NOT AVBL
PORT LAVACA    NOT AVBL
CORPUS CHRISTI MOCLDY    84  74  71 E20       29.84S
KINGSVILLE NAS CLEAR     86  74  67 SE16G23   29.84R
COTULLA        NOT AVBL
LAREDO         NOT AVBL
BROWNSVILLE    NOT AVBL
PORT ISABEL    NOT AVBL
HEBBRONVILLE   MOCLDY    87  68  52 SE18G29   29.83R
MCALLEN        NOT AVBL
WESLACO        CLOUDY    86  72  62 SE12G20   29.81R
FALFURRIAS     PTCLDY   -38  32 100 SE13      29.83R WCI -66
EDINBURG       CLOUDY    86  73  64 E18       29.82R
$$



USA.gov is the U.S. government's official web portal to all federal, state and local government web resources and services.